Weather History for KOSC - October, 2012

Change the Weather History Date:

Wednesday, October 3, 2012

  Actual Average Record
Temperature  
Mean Temperature 56 °F -  
Max Temperature 67 °F 60 °F 82 °F (2005)
Min Temperature 46 °F 41 °F 32 °F (2008)
Degree Days  
Heating Degree Days 8    
Growing Degree Days 6 (Base 50)    
Moisture  
Dew Point 54 °F    
Average Humidity 91    
Maximum Humidity 98    
Minimum Humidity 70    
Precipitation  
Precipitation 0.00 in - - ()
Sea Level Pressure  
Sea Level Pressure 29.98 in    
Wind  
Wind Speed 2 mph (ESE)    
Max Wind Speed 8 mph    
Max Gust Speed -    
Visibility 9 miles    
Events Rain    
Averages and records for this station are not official NWS values.
T = Trace of Precipitation, MM = Missing Value Source: NWS Daily Summary

Daily Weather History Graph

Daily Weather History Graph

Search for Another Location

Airport or City:

Trip Planner

Search our weather history database for the weather conditions in past years. The results will help you decide how hot, cold, wet, or windy it might be!

Date:

Astronomy

Oct. 03, 2012 Rise Set
Actual Time 7:34 AM EDT 7:09 PM EDT
Civil Twilight 7:05 AM EDT 7:38 PM EDT
Nautical Twilight 6:31 AM EDT 8:12 PM EDT
Astronomical Twilight 5:57 AM EDT 8:46 PM EDT
Moon 8:51 PM EDT (10/3) 11:06 AM EDT (10/3)
Length of Visible Light 12h 33m
Length of Day
11h 35m
Waning Gibbous, 89% of the Moon is Illuminated
Oct 3
Waning Gibbous
Oct 8
Last Quarter
Oct 15
New
Oct 21
First Quarter
Oct 29
Full

Hourly Weather History & Observations

Time (EDT) Temp. Dew Point Humidity Pressure Visibility Wind Dir Wind Speed Gust Speed Precip Events Conditions
12:13 AM 47.3 °F 46.4 °F 97% 29.97 in 10.0 mi Calm Calm - N/A   Clear
12:33 AM 47.3 °F 46.6 °F 97% 29.96 in 10.0 mi NNW 3.5 mph - N/A   Clear
12:53 AM 46.8 °F 46.2 °F 98% 29.96 in 10.0 mi Calm Calm - N/A   Clear
1:13 AM 47.5 °F 46.8 °F 97% 29.96 in 10.0 mi Calm Calm - N/A   Clear
1:33 AM 47.7 °F 47.1 °F 98% 29.96 in 10.0 mi Calm Calm - N/A   Clear
1:53 AM 47.3 °F 46.6 °F 97% 29.96 in 10.0 mi Calm Calm - N/A   Clear
2:13 AM 47.5 °F 46.8 °F 97% 29.96 in 10.0 mi Calm Calm - N/A   Clear
2:33 AM 47.3 °F 46.6 °F 97% 29.96 in 10.0 mi Calm Calm - N/A   Clear
2:53 AM 47.5 °F 46.8 °F 97% 29.96 in 10.0 mi North 3.5 mph - N/A   Clear
3:13 AM 47.3 °F 46.4 °F 97% 29.95 in 7.0 mi Calm Calm - N/A   Clear
3:33 AM 46.9 °F 46.2 °F 97% 29.95 in 10.0 mi Calm Calm - N/A   Clear
3:53 AM 46.6 °F 45.9 °F 97% 29.95 in 10.0 mi NNW 4.6 mph - N/A   Clear
4:13 AM 48.0 °F 47.3 °F 97% 29.95 in 10.0 mi Calm Calm - N/A   Clear
4:33 AM 48.6 °F 47.8 °F 97% 29.95 in 10.0 mi Calm Calm - N/A   Clear
4:54 AM 49.5 °F 48.7 °F 97% 29.95 in 10.0 mi Calm Calm - N/A   Scattered Clouds
5:13 AM 50.0 °F 49.3 °F 97% 29.95 in 10.0 mi Calm Calm - N/A   Scattered Clouds
5:33 AM 50.0 °F 49.1 °F 97% 29.96 in 10.0 mi NNW 3.5 mph - N/A   Scattered Clouds
5:53 AM 50.0 °F 49.3 °F 97% 29.97 in 7.0 mi Calm Calm - N/A   Mostly Cloudy
6:13 AM 50.5 °F 50.0 °F 98% 29.97 in 7.0 mi Calm Calm - N/A   Overcast
6:33 AM 51.1 °F 50.4 °F 97% 29.98 in 7.0 mi Calm Calm - N/A Rain Light Rain
6:53 AM 51.4 °F 50.7 °F 97% 29.97 in 7.0 mi North 3.5 mph - N/A   Overcast
7:13 AM 52.0 °F 51.3 °F 97% 29.98 in 7.0 mi Calm Calm - N/A   Overcast
7:33 AM 51.8 °F 51.1 °F 97% 29.98 in 5.0 mi NNW 3.5 mph - N/A   Overcast
7:53 AM 52.0 °F 51.3 °F 97% 29.98 in 5.0 mi Calm Calm - N/A   Overcast
8:13 AM 52.7 °F 51.8 °F 97% 29.98 in 7.0 mi Calm Calm - N/A   Overcast
8:33 AM 53.1 °F 52.5 °F 98% 29.99 in 7.0 mi Calm Calm - N/A   Overcast
8:53 AM 53.8 °F 53.1 °F 97% 29.99 in 7.0 mi Calm Calm - N/A   Overcast
9:13 AM 54.5 °F 53.8 °F 97% 29.99 in 7.0 mi North 3.5 mph - N/A   Overcast
9:33 AM 55.8 °F 54.9 °F 97% 29.99 in 10.0 mi Calm Calm - N/A   Overcast
9:53 AM 57.4 °F 56.3 °F 96% 29.99 in 10.0 mi Calm Calm - N/A   Overcast
10:13 AM 59.2 °F 57.4 °F 94% 29.99 in 10.0 mi Calm Calm - N/A   Overcast
10:33 AM 60.8 °F 58.1 °F 91% 29.99 in 10.0 mi North 3.5 mph - N/A   Overcast
10:53 AM 61.9 °F 58.8 °F 90% 29.99 in 10.0 mi NNE 4.6 mph - N/A   Overcast
11:13 AM 62.6 °F 58.6 °F 87% 29.99 in 10.0 mi Calm Calm - N/A   Overcast
11:33 AM 62.6 °F 58.1 °F 85% 29.99 in 10.0 mi NE 3.5 mph - N/A   Overcast
11:53 AM 63.1 °F 58.3 °F 84% 29.99 in 10.0 mi Calm Calm - N/A   Overcast
12:13 PM 63.9 °F 58.3 °F 82% 29.98 in 10.0 mi NNE 4.6 mph - N/A   Overcast
12:33 PM 64.4 °F 58.1 °F 80% 29.98 in 10.0 mi NE 3.5 mph - N/A   Overcast
12:53 PM 65.5 °F 57.0 °F 74% 29.98 in 10.0 mi ENE 4.6 mph - N/A   Overcast
1:13 PM 66.2 °F 56.5 °F 71% 29.98 in 10.0 mi NE 3.5 mph - N/A   Overcast
1:33 PM 67.1 °F 57.6 °F 71% 29.97 in 10.0 mi ENE 5.8 mph - N/A   Overcast
1:53 PM 67.1 °F 56.8 °F 70% 29.97 in 10.0 mi ENE 5.8 mph - N/A   Overcast
2:13 PM 66.7 °F 58.3 °F 74% 29.97 in 10.0 mi East 6.9 mph - N/A   Overcast
2:33 PM 66.4 °F 58.1 °F 75% 29.97 in 10.0 mi East 8.1 mph - N/A   Overcast
2:53 PM 64.4 °F 57.9 °F 79% 29.97 in 10.0 mi East 6.9 mph - N/A   Overcast
3:13 PM 63.5 °F 57.7 °F 81% 29.97 in 10.0 mi East 6.9 mph - N/A   Overcast
3:33 PM 63.5 °F 57.7 °F 81% 29.97 in 10.0 mi ENE 6.9 mph - N/A   Overcast
3:53 PM 63.5 °F 57.7 °F 81% 29.98 in 10.0 mi East 6.9 mph - N/A   Overcast
4:13 PM 63.1 °F 57.6 °F 82% 29.98 in 10.0 mi ESE 5.8 mph - N/A   Overcast
4:33 PM 63.5 °F 57.0 °F 79% 29.98 in 10.0 mi East 4.6 mph - N/A   Overcast
4:53 PM 63.0 °F 56.7 °F 80% 29.98 in 10.0 mi ENE 3.5 mph - N/A   Overcast
5:13 PM 63.1 °F 56.7 °F 79% 29.98 in 10.0 mi Calm Calm - N/A   Overcast
5:33 PM 63.0 °F 56.7 °F 80% 29.98 in 10.0 mi Calm Calm - N/A   Overcast
5:53 PM 63.0 °F 57.2 °F 81% 29.98 in 10.0 mi Calm Calm - N/A   Overcast
6:13 PM 62.6 °F 57.2 °F 82% 29.99 in 10.0 mi SE 3.5 mph - N/A   Overcast
6:33 PM 61.7 °F 58.8 °F 90% 29.99 in 7.0 mi SSE 4.6 mph - N/A Rain Rain
6:53 PM 61.5 °F 59.2 °F 92% 29.99 in 10.0 mi South 3.5 mph - N/A   Overcast
7:13 PM 60.8 °F 58.6 °F 93% 29.99 in 5.0 mi SSW 4.6 mph - N/A   Heavy Drizzle
7:33 PM 60.4 °F 59.0 °F 95% 30.00 in 10.0 mi SSW 4.6 mph - N/A   Overcast
7:53 PM 60.3 °F 58.5 °F 94% 30.01 in 10.0 mi SSW 4.6 mph - N/A   Overcast
8:13 PM 60.1 °F 58.5 °F 94% 30.00 in 7.0 mi SSW 3.5 mph - N/A   Overcast
8:33 PM 60.3 °F 58.6 °F 94% 30.01 in 7.0 mi SSW 4.6 mph - N/A   Overcast
8:53 PM 60.1 °F 58.6 °F 95% 30.01 in 4.0 mi SSW 4.6 mph - N/A Rain Rain
9:14 PM 60.1 °F 58.8 °F 96% 30.01 in 4.0 mi Calm Calm - N/A   Overcast
9:33 PM 59.9 °F 58.6 °F 96% 30.01 in 4.0 mi SSW 3.5 mph - N/A   Overcast
9:53 PM 59.9 °F 58.5 °F 95% 30.01 in 4.0 mi SW 4.6 mph - N/A   Overcast
10:14 PM 59.9 °F 58.6 °F 96% 30.01 in 4.0 mi SSW 4.6 mph - N/A   Overcast
10:33 PM 59.9 °F 58.5 °F 95% 30.02 in 5.0 mi SSW 5.8 mph - N/A   Overcast
10:53 PM 59.9 °F 58.6 °F 96% 30.02 in 5.0 mi SSW 4.6 mph - N/A   Overcast
11:14 PM 59.9 °F 58.5 °F 95% 30.02 in 7.0 mi SSW 4.6 mph - N/A   Overcast
11:33 PM 59.7 °F 58.1 °F 94% 30.03 in 7.0 mi SSW 6.9 mph - N/A   Overcast
11:53 PM 59.9 °F 58.3 °F 94% 30.03 in 7.0 mi South 4.6 mph - N/A   Overcast